This is the latest recevied weather packets stored in our database for station/object K4DNM. If no packets are shown the sender has not sent any weather packets the latest 10 day(s).
| Time | Temp. | Humidity | Pressure | Rain* | Wind** | Luminosity | Snow |
|---|---|---|---|---|---|---|---|
| 1778186995 | 13.89° C | 98% | 1007.9 hPa | 2.29 mm | - | 47 W/m² | - |
| 1778186695 | 13.89° C | 98% | 1007.9 hPa | 2.29 mm | - | 41 W/m² | - |
| 1778186397 | 14.44° C | 98% | 1007.5 hPa | 2.03 mm | - | 35 W/m² | - |
| 1778186094 | 14.44° C | 98% | 1007.5 hPa | 1.78 mm | - | 32 W/m² | - |
| 1778185794 | 14.44° C | 98% | 1007.5 hPa | 1.52 mm | - | 26 W/m² | - |
| 1778185554 | 14.44° C | 98% | 1007.5 hPa | 1.27 mm | - | 26 W/m² | - |
| 1778185244 | 14.44° C | 98% | 1007.2 hPa | 1.02 mm | - | 35 W/m² | - |
| 1778184884 | 15° C | 98% | 1007.3 hPa | 1.02 mm | - | 29 W/m² | - |
| 1778184579 | 15° C | 98% | 1007.4 hPa | 0.51 mm | - | 19 W/m² | - |
| 1778184290 | 15° C | 98% | 1007.4 hPa | 0.25 mm | - | 30 W/m² | - |
| 1778183980 | 15° C | 98% | 1007.5 hPa | 0.25 mm | - | 25 W/m² | - |
| 1778183678 | 15.56° C | 98% | 1007.6 hPa | 0.51 mm | - | 14 W/m² | - |
| 1778183378 | 15.56° C | 98% | 1007.4 hPa | 0.25 mm | - | 23 W/m² | - |
| 1778183138 | 15.56° C | 98% | 1007.3 hPa | 0.25 mm | - | 27 W/m² | - |
| 1778182779 | 15.56° C | 98% | 1007.3 hPa | 0.25 mm | - | 23 W/m² | - |
| 1778182479 | 15.56° C | 98% | 1007.3 hPa | 0.25 mm | - | 33 W/m² | - |
| 1778182236 | 15.56° C | 98% | 1007.5 hPa | 0.25 mm | - | 30 W/m² | - |
| 1778181879 | 16.11° C | 98% | 1007.3 hPa | 0.25 mm | - | 42 W/m² | - |
| 1778181639 | 16.11° C | 98% | 1007.2 hPa | 0.25 mm | - | 47 W/m² | - |
| 1778181279 | 16.67° C | 98% | 1006.8 hPa | 0.25 mm | - | 42 W/m² | - |
| 1778180978 | 16.67° C | 97% | 1006.6 hPa | 0.25 mm | - | 56 W/m² | - |
| 1778180666 | 16.67° C | 97% | 1006.6 hPa | 0.25 mm | - | 57 W/m² | - |
| 1778180364 | 16.67° C | 97% | 1006.8 hPa | 0.25 mm | - | 55 W/m² | - |
| 1778180064 | 16.67° C | 96% | 1007 hPa | 0 mm | - | 56 W/m² | - |
| 1778179752 | 17.22° C | 96% | 1007.4 hPa | 0 mm | - | 55 W/m² | - |
* Rain latest hour (hover to see other rain measurements)
** Current wind speed in m/s (hover to see current wind gust speed)